Regional Weather Roundup
Issued by NWS Jackson, KY

Home | Current Version | Previous Version | Text Only | Print | Product List | Glossary Off
Versions: 1 2 3 4 5 6 7 8 9 10 11 12 13 14 15 16 17 18 19 20 21 22 23 24 25 26 27 28 29 30 31 32 33 34 35 36 37 38 39 40 41 42 43 44 45 46 47 48 49 50

573
ASUS43 KJKL 250610
RWRJKL

EAST KENTUCKY HOURLY WEATHER ROUNDUP
NATIONAL WEATHER SERVICE JACKSON KY
200 AM EDT SAT MAR 25 2017

NOTE: "FAIR" INDICATES FEW OR NO CLOUDS BELOW 12,000 FEET WITH
NO SIGNIFICANT WEATHER AND/OR OBSTRUCTIONS TO VISIBILITY.

* THESE REPORTS ARE NOT UNDER NWS QUALITY CONTROL AND MAY NOT
  REPORT WEATHER SUCH AS PRECIPITATION AND FOG.

KYZ079-080-083-085-087-088-110-112-115-119-120-250700
...EASTERN KENTUCKY...

CITY           SKY/WX    TMP DP  RH WIND       PRES   REMARKS
JACKSON        CLOUDY    62  47  57 VRB6      30.20R
6HR MIN TEMP:  62; 6HR MAX TEMP:  71;

LONDON         PTCLDY    62  45  53 S6        30.18F
6HR MIN TEMP:  62; 6HR MAX TEMP:  69;

SOMERSET*      CLOUDY    59  45  58 CALM      30.18F
MONTICELLO*    MOCLDY    63  48  58 SE8       30.18F
6HR MIN TEMP:  63; 6HR MAX TEMP:  68;

WILLIAMSBURG*  PTCLDY    61  46  59 SE7       30.18F
MIDDLESBORO*   MOCLDY    59  47  64 CALM      30.23S
6HR MIN TEMP:  59; 6HR MAX TEMP:  67;

HARLAN APT*    MOCLDY    61  45  55 CALM      30.22F
PIKE CO APT*     N/A     63  49  59 S3        30.20F
BIG SANDY APT* PTCLDY    65  49  56 SW6       30.20R
6HR MIN TEMP:  64; 6HR MAX TEMP:  71;

MOREHEAD APT*  MOCLDY    63  48  59 S3        30.20S
ASHLAND*       MOCLDY    52  52 100 W3        30.17R
$$

KYZ035-036-041-042-044-050-067-078-099-250700
...CENTRAL KENTUCKY...

CITY           SKY/WX    TMP DP  RH WIND       PRES   REMARKS
MT STERLING*   CLOUDY    61  48  63 SW3       30.19F
FLEMING/MASON* CLOUDY    60  49  68 SW5       30.19S
DANVILLE*      CLOUDY    57  46  67 S3        30.17S
LEXINGTON      CLOUDY    60  48  64 SE6       30.16F
6HR MIN TEMP:  60; 6HR MAX TEMP:  69;

FRANKFORT      CLOUDY    61  49  64 SE5       30.13F
6HR MIN TEMP:  59; 6HR MAX TEMP:  70;

LOUISVILLE     PTCLDY    63  49  60 SE6       30.11F
6HR MIN TEMP:  63; 6HR MAX TEMP:  73;

LEBANON*         N/A     63  48  59 S7        30.14
GLASGOW*       CLEAR     63  49  60 S6        30.12F
BOWLING GREEN  PTCLDY    63  50  62 SE5       30.11F
6HR MIN TEMP:  63; 6HR MAX TEMP:  71;

$$

KYZ091>093-OHZ055-061-077-WVZ005-015-034-035-042-250700
...SOUTHERN OHIO/WEST VIRGINIA...

CITY           SKY/WX    TMP DP  RH WIND       PRES   REMARKS
COVINGTON      CLOUDY    60  52  74 S7        30.13F
COLUMBUS       CLOUDY    62  52  69 S7        30.12F
DAYTON         CLOUDY    63  52  67 SW14      30.11S
WILMINGTON     PTCLDY    60  52  74 SW10      30.13F
HUNTINGTON     PTCLDY    65  48  54 SW6       30.18R
CHARLESTON     CLOUDY    64  47  53 SW6       30.17S
PINEVILLE*     CLOUDY    52  46  78 MISG      30.28S
BECKLEY        PTCLDY    59  45  59 S9        30.24F
BLUEFIELD      CLOUDY    57  44  62 SW6       30.27F
LOGAN CO APT*    N/A     63  48  59 CALM      30.20F
$$

VAZ002-007-008-TNZ017-027-036-066-071-250700
...SOUTHWEST VIRGINIA/EAST TENNESSEE...

CITY           SKY/WX    TMP DP  RH WIND       PRES   REMARKS
WISE*          MOCLDY    57  45  62 SW12G17   30.27F
JONESVILLE*      N/A     54  48  82 CALM      30.25F
ABINGDON*      CLOUDY    55  47  73 CALM      30.27F
BRISTOL        CLOUDY    54  46  74 CALM      30.26F
MORRISTOWN*    PTCLDY    59  48  67 CALM      30.22F
SEVIERVILLE*   CLEAR     55  45  67 CALM      30.21F
KNOXVILLE      CLOUDY    60  46  59 CALM      30.20F
LAFOLLETTE*    MOCLDY    57  48  72 E5        30.24F
OAK RIDGE      PTCLDY    56  47  71 CALM      30.23F
CROSSVILLE     CLEAR     59  46  62 S6        30.21F
NASHVILLE      MOCLDY    62  51  67 SE7       30.12F
$$

...KEY TO REMARKS...
VSB - VISIBILITY IN MILES
WCI - WIND CHILL INDEX
HX  - HEAT INDEX

$$




USA.gov is the U.S. government's official web portal to all federal, state and local government web resources and services.